Location: Bachorce
(52.6659°N, 18.4200°E)
Time: 23:31:34
(UTC+02:00)

ISS - Visible Passes

Search period start: 22 September 2018 00:00
Search period end: 02 October 2018 00:00
Orbit: 403 x 408 km, 51.6° (Epoch: 23 September)

Date Brightness Start Highest point End Pass type
(mag) Time Alt. Az. Time Alt. Az. Time Alt. Az.
22 Sep -1.4 20:28:22 10° S 20:28:53 12° S 20:28:53 12° S visible
23 Sep -1.7 19:37:47 10° SSE 19:39:03 12° SE 19:39:38 11° SE visible
23 Sep -1.2 21:11:47 10° SW 21:12:21 14° SW 21:12:21 14° SW visible
24 Sep -2.7 20:20:13 10° SW 20:22:54 29° SSE 20:22:54 29° SSE visible
25 Sep -2.2 19:28:52 10° SSW 19:31:24 21° SSE 19:33:18 13° ESE visible
25 Sep -2.2 21:04:14 10° WSW 21:05:59 28° SW 21:05:59 28° SW visible
26 Sep -3.4 20:12:28 10° SW 20:15:38 45° SSE 20:16:15 39° SE visible
26 Sep -0.6 21:48:42 10° W 21:48:56 12° W 21:48:56 12° W visible
27 Sep -2.9 19:20:48 10° SW 19:23:50 33° SSE 19:26:26 13° E visible
27 Sep -2.7 20:56:48 10° WSW 20:59:06 41° WSW 20:59:06 41° WSW visible
28 Sep -3.8 20:04:54 10° WSW 20:08:11 63° SSE 20:09:12 39° ESE visible
28 Sep -0.8 21:41:19 10° W 21:41:52 14° W 21:41:52 14° W visible
29 Sep -3.4 19:13:04 10° WSW 19:16:17 50° SSE 19:19:14 12° E visible
29 Sep -3.0 20:49:22 10° W 20:51:54 49° WSW 20:51:54 49° WSW visible
30 Sep -3.9 19:57:25 10° W 20:00:43 75° S 20:01:54 36° E visible
30 Sep -0.9 21:33:52 10° W 21:34:34 15° W 21:34:34 15° W visible
01 Oct -3.7 19:05:28 10° WSW 19:08:45 67° S 19:11:53 11° E visible
01 Oct -3.1 20:41:53 10° W 20:44:32 50° WSW 20:44:32 50° WSW visible
